Find Local Weather

World > North America > United States > Ohio

Solon, Ohio Regional Weather

Lat: 41.39N, Lon: 81.44W
Wx Zone: OHZ011
Feedback
Expires:201812171800;;937551
ASUS41 KCLE 171712
RWRCLE
OHIO REGIONAL WEATHER ROUNDUP
NATIONAL WEATHER SERVICE WILMINGTON, OH
1200 PM EST MON DEC 17 2018

NOTE: "FAIR" INDICATES FEW OR NO CLOUDS BELOW 12,000 FEET WITH NO
SIGNIFICANT WEATHER AND/OR OBSTRUCTIONS TO VISIBILITY.


OHZ009>014-019>023-028>033-038-089-171800-
   NORTHEAST OHIO
  
CITY           SKY/WX    TMP DP  RH WIND       PRES   REMARKS
CLE-HOPKINS    PTSUNNY   38  30  73 NW12      30.06S                  
CLE-LAKEFRONT  FAIR      39  30  70 NW15      30.04S                  
CUY CO. ARPT   MOSUNNY   37  30  75 NW13      30.04R                  
LORAIN-ELYRIA  FAIR      37  26  64 N14G23    30.06R                  
ASHTABULA      CLOUDY    36  27  69 NW12G24   30.00R                  
AKRON-CANTON   PTSUNNY   38  28  67 NW12      30.02R                  
WOOSTER        PTSUNNY   38  31  76 NW15      30.04R                  
MANSFIELD      FAIR      36  29  75 NW13      30.05S                  
YOUNGSTOWN     CLOUDY    37  29  72 NW15G25   29.98R                  
$$
 

SKY/WX - Weather  TMP - Temperature  DP - Dew Point  RH - Relative Humidity
WIND - Wind Direction/Speed PRES - Barometric Pressure